Voltar ao catálogo

FENGYUN 1C DEB

AtivoSSO
NORAD 31772·DEBRIS·🇨🇳 China

Lançado May 10, 1999 de Taiyuan Satellite Launch Center

Loading…

Próximas Passagens (próximas 24 horas)

TLE

AtualizadoSource: Space-Track

Época: Sep 13, 2026, 04:12 UTC

1 31772U 99025CFX 26256.17552623  .00001346  00000-0  68263-3 0  9999
2 31772  98.4653 163.7971 0137215  47.9584 313.3172 14.12762767747570

Acompanhe FENGYUN 1C DEB em tempo real com AllMySat

Download on the App Store